[[{"header":{"parameterUnit":"m.s-1","parameterCategory":1,"la1":30.2992,"la2":30.254,"lo1":-89.0895,"lo2":-89.0443,"dy":0.0025,"dx":0.0025,"nx":19,"ny":19,"refTime":"2026-03-14T21:00:00:Z","depth":0,"parameterNumber":2,"parameterNumberName":"U-component_of_WINDS"},"data":[0,0,0,-3.573,-3.5735,-3.5977,-3.5978,-3.6282,-3.6285,0,0,0,0,0,0,0,0,0,0,0,-3.5652,-3.5654,-3.5729,-3.5735,-3.5977,-3.5979,-3.6282,-3.6285,0,0,0,0,0,0,0,0,0,0,0,-3.5651,-3.5653,-3.5656,-3.5736,-3.5977,-3.5979,-3.6281,-3.6101,0,0,0,0,0,0,0,0,0,0,-3.5867,-3.5789,-3.5653,-3.5656,-3.5737,-3.5977,-3.5979,-3.6092,-3.6112,-3.6169,0,-3.6216,0,-3.6255,-3.6305,-3.6306,0,0,0,-3.574,-3.5772,-3.5843,-3.5656,-3.574,-3.5977,-3.5869,-3.6104,-3.6126,-3.6195,-3.6221,-3.6232,-3.626,-3.6307,-3.6308,-3.6616,-3.6617,0,0,-3.5727,-3.5693,-3.5827,-3.5857,-3.5817,-3.5862,-3.5877,-3.6117,-3.6144,-3.6222,-3.624,-3.6265,-3.6309,-3.6311,-3.6615,-3.6616,0,0,0,-3.5685,-3.5683,-3.5748,-3.5844,-3.5888,-3.5869,-3.5886,-3.6133,-3.6157,-3.6243,-3.6269,-3.631,-3.6314,-3.6613,-3.6615,-3.6641,0,0,0,-3.5677,-3.5659,-3.5742,-3.5724,-3.5884,-3.6013,-3.5896,-3.614,-3.6168,-3.6267,-3.631,-3.6317,-3.6612,-3.6614,-3.6637,-3.6658,0,0,0,-3.5638,-3.5655,-3.5687,-3.5722,-3.5824,-3.601,-3.6048,-3.6147,-3.6184,-3.6306,-3.6318,-3.6611,-3.6614,-3.6634,-3.6653,-3.6729,0,0,0,-3.5588,-3.5708,-3.5687,-3.5832,-3.5822,-3.6024,-3.6047,-3.6199,-3.6307,-3.6312,-3.6612,-3.6615,-3.6633,-3.665,-3.6725,-3.6785,-3.6807,0,0,-3.572,-3.5722,-3.581,-3.5799,-3.5995,-3.5989,-3.6191,-3.6322,-3.6366,-3.6531,-3.6539,-3.6638,-3.6653,-3.6728,-3.6945,-3.6962,0,0,0,-3.5841,-3.5903,-3.5963,-3.6063,-3.6166,-3.6256,-3.636,-3.6409,-3.655,-3.6443,-3.6688,-3.6698,-3.6743,-3.6774,-3.6788,-3.6829,-3.6628,-3.6628,-3.6627,-3.598,-3.6028,-3.6177,-3.6255,-3.6352,-3.6458,-3.6542,-3.6627,-3.6648,-3.6706,-3.6754,-3.6879,-3.6914,-3.6925,-3.6967,-3.6791,-3.6791,-3.6791,-3.6791,-3.6178,-3.6274,-3.6299,-3.6452,-3.6504,-3.6634,-3.6742,-3.6753,-3.6883,-3.6846,-3.6889,-3.6844,-3.6942,-3.6982,-3.6794,-3.6793,-3.6793,-3.6793,-3.6793,-3.6273,-3.6327,-3.6385,-3.6535,-3.6646,-3.6722,-3.6845,-3.6888,-3.693,-3.6972,-3.7028,-3.7028,-3.7033,-3.6996,-3.6997,-3.6997,-3.6997,-3.6998,-3.6998,-3.6349,-3.6412,-3.651,-3.6629,-3.6699,-3.6798,-3.6907,-3.6979,-3.7069,-3.7091,-3.7092,-3.7107,-3.6943,-3.6899,-3.7005,-3.7004,-3.7003,-3.7002,-3.7002,-3.653,-3.6496,-3.6646,-3.6716,-3.6861,-3.6968,-3.7022,-3.7164,-3.723,-3.7289,-3.7297,-3.7168,-3.7174,-3.7163,-3.7127,-3.7286,-3.7286,-3.7286,-3.7286,-3.6609,-3.6617,-3.678,-3.689,-3.7003,-3.7067,-3.7237,-3.7324,-3.7409,-3.7453,-3.7437,-3.7395,-3.7381,-3.7395,-3.7379,-3.7346,-3.7557,-3.7557,-3.7557,-3.6724,-3.6744,-3.6879,-3.696,-3.7076,-3.7176,-3.7338,-3.7465,-3.7555,-3.7569,-3.7489,-3.7477,-3.7409,-3.7384,-3.7395,-3.7369,-3.7311,0,0]},{"header":{"parameterUnit":"m.s-1","parameterCategory":1,"la1":30.2992,"la2":30.254,"lo1":-89.0895,"lo2":-89.0443,"dy":0.0025,"dx":0.0025,"nx":19,"ny":19,"refTime":"2026-03-14T21:00:00:Z","depth":0,"parameterNumber":3,"parameterNumberName":"V-component_of_WINDS"},"data":[0,0,0,4.7138,4.7142,4.7315,4.7316,4.7535,4.7537,0,0,0,0,0,0,0,0,0,0,0,4.7088,4.7089,4.7138,4.7142,4.7315,4.7316,4.7534,4.7537,0,0,0,0,0,0,0,0,0,0,0,4.7087,4.7089,4.7091,4.7143,4.7315,4.7316,4.7534,4.7403,0,0,0,0,0,0,0,0,0,0,4.7235,4.7191,4.7089,4.7091,4.7144,4.7315,4.7316,4.7397,4.7412,4.7456,0,4.7499,0,4.7522,4.7552,4.7552,0,0,0,4.714,4.7179,4.7225,4.7091,4.7145,4.7315,4.7237,4.7405,4.7422,4.7475,4.7502,4.751,4.7525,4.7553,4.7554,4.7826,4.7827,0,0,4.7131,4.7119,4.7214,4.7236,4.7212,4.7231,4.7242,4.7415,4.7442,4.7503,4.7515,4.7529,4.7555,4.7556,4.7825,4.7826,0,0,0,4.7104,4.7112,4.7154,4.7227,4.7258,4.7236,4.7249,4.7434,4.7449,4.7518,4.7532,4.7556,4.7559,4.7823,4.7825,4.7882,0,0,0,4.7099,4.7097,4.715,4.7144,4.7255,4.7349,4.7264,4.7437,4.7457,4.753,4.7556,4.7561,4.7822,4.7824,4.7877,4.791,0,0,0,4.7076,4.7094,4.712,4.7143,4.7218,4.7347,4.7371,4.7442,4.7466,4.7553,4.7561,4.7821,4.7824,4.7873,4.7903,4.7978,0,0,0,4.7047,4.7166,4.7121,4.7259,4.7217,4.7382,4.737,4.7493,4.7575,4.7557,4.7822,4.7825,4.7872,4.7899,4.7974,4.8039,4.8066,0,0,4.719,4.7183,4.7265,4.723,4.7401,4.7356,4.7535,4.7618,4.7636,4.7761,4.7768,4.7879,4.7903,4.7977,4.8221,4.8242,0,0,0,4.7306,4.7364,4.7412,4.7491,4.7561,4.7623,4.7681,4.7713,4.782,4.7699,4.7927,4.7942,4.7986,4.8018,4.8036,4.8074,4.784,4.7839,4.7839,4.7488,4.7508,4.7645,4.7686,4.7762,4.7824,4.7887,4.7939,4.7933,4.7987,4.8023,4.8169,4.8206,4.8219,4.8259,4.806,4.8061,4.8061,4.8061,4.7698,4.7784,4.7778,4.7909,4.7928,4.8037,4.8101,4.8093,4.8196,4.8142,4.8182,4.8121,4.8242,4.8278,4.8065,4.8065,4.8064,4.8064,4.8063,4.7818,4.7863,4.7902,4.802,4.8108,4.8145,4.8246,4.8259,4.8271,4.8311,4.8351,4.835,4.835,4.833,4.833,4.8331,4.8331,4.8332,4.8332,4.7927,4.797,4.8055,4.8141,4.8195,4.8267,4.8331,4.8383,4.8444,4.8445,4.8445,4.8434,4.8251,4.8204,4.834,4.8338,4.8337,4.8337,4.8336,4.813,4.8087,4.8218,4.8272,4.8376,4.8463,4.848,4.8585,4.863,4.8679,4.8661,4.8524,4.8516,4.8502,4.8463,4.8657,4.8657,4.8657,4.8657,4.8231,4.823,4.8368,4.8454,4.8539,4.8569,4.8714,4.8766,4.8812,4.8841,4.8815,4.8765,4.875,4.8751,4.8731,4.8695,4.8944,4.8944,4.8945,4.8356,4.8365,4.8487,4.8535,4.8618,4.8688,4.8825,4.8922,4.8964,4.8957,4.8863,4.8851,4.8771,4.8744,4.8731,4.8701,4.8635,0,0]}]]